Weather Roundup
Issued by NWS

Home | Current Version | Previous Version | Graphics & Text | Print | Product List | Glossary Off
Versions: 1 2 3 4 5 6 7 8 9 10 11 12 13 14 15 16 17 18 19 20 21 22 23 24 25 26 27 28 29 30 31 32 33 34 35 36 37 38 39 40 41 42 43 44 45 46 47 48 49 50

000
NZUS93 KARX 261010
HRRWXR

CURRENT HOURLY OBSERVATIONS ACROSS
MUCH OF THE UPPER MISSISSIPPI VALLEY
NATIONAL WEATHER SERVICE LA CROSSE WI
400 AM CST FRI DEC 26 2014


...SOUTHEAST MINNESOTA...


CITY           SKY/WX    TMP DP  RH WIND       PRES   REMARKS
ROCHESTER      PTCLDY    28  26  92 NE6       29.83S WCI  22
ROCHESTER/MAYO CLOUDY    32  30  90 E6        29.83F WCI  27
WINONA         PTCLDY    30  30 100 CALM      29.88S FOG
AUSTIN         CLEAR     27  27 100 E3        29.82S
ALBERT LEA     PTCLDY    28  28 100 CALM      29.82S FOG
DODGE CENTER   CLOUDY    32  30  93 E7        29.82F WCI  26
PRESTON        CLEAR     30  28  90 CALM      29.84S
OWATONNA       CLOUDY    32  30  93 N5        29.83F FOG     WCI  27
FARIBAULT      CLOUDY    30  30 100 N7        29.85S FOG     WCI  23
$$

...ELSEWHERE IN MINNESOTA...


CITY           SKY/WX    TMP DP  RH WIND       PRES   REMARKS
MINNEAPOLIS    CLOUDY    32  30  92 N10       29.88S WCI  24
INTNL FALLS    CLOUDY    25  22  88 NW7       29.98R WCI  17
DULUTH         CLOUDY    29  22  75 N9        29.91R WCI  20
RED WING       CLOUDY    34  30  86 CALM      29.86S
REDWOOD FALLS  CLOUDY    31  28  89 N10       29.91R WCI  22
MANKATO        CLOUDY    32  28  86 N14       29.85S WCI  22
WORTHINGTON    CLOUDY    28 -18  12 N16       29.89R WCI  17
FAIRMONT       CLOUDY    32  28  86 N12       29.84R WCI  23
$$

...SOUTHWEST WISCONSIN...


CITY           SKY/WX    TMP DP  RH WIND       PRES   REMARKS
LA CROSSE      CLEAR     28  25  88 CALM      29.87R
PRAIRIE DU CHI PTCLDY    37  30  77 E5        29.86S WCI  33
BOSCOBEL       FAIR      31  28  89 E3        29.88S
LONE ROCK      PTCLDY    38  30  73 NE3       29.89S
PLATTEVILLE    PTCLDY    38  34  85 S12       29.88S WCI  30
FORT MC COY    PTCLDY    25  24  99 CALM      29.88R
CAMP DOUGLAS   CLOUDY    28  28 100 CALM      29.87S
VIROQUA        FAIR      34  34  99 SE5       29.85R WCI  30
WIS DELLS      MOCLDY    37  32  81 S7        29.87F WCI  31
$$

...ELSEWHERE IN WISCONSIN...


CITY           SKY/WX    TMP DP  RH WIND       PRES   REMARKS
MILWAUKEE      CLOUDY    39  33  79 SW12      29.94F WCI  32
MADISON        MOCLDY    37  33  85 S6        29.90S WCI  32
GREEN BAY      PTCLDY    30  29  96 CALM      29.93S FOG
EAU CLAIRE     MOCLDY    30  27  88 NE6       29.87S WCI  24
BLACK RVR FLS  FAIR      22  22 100 CALM      29.87S FOG
MEDFORD        CLOUDY    26  26  97 NE3       29.86F FOG
WAUSAU         CLOUDY    29  27  92 SE3       29.88S
WIS RAPIDS     PTCLDY    25  22  88 CALM      29.90S FOG
MARSHFIELD     CLEAR     27  25  92 NE6       29.87F FOG     WCI  20
RICE LAKE      CLOUDY    31  30  95 N7        29.90R FOG     WCI  24
$$

...NORTHEAST IOWA...


CITY           SKY/WX    TMP DP  RH WIND       PRES   REMARKS
DECORAH        CLEAR     37  32  81 S6        29.83R WCI  33
MASON CITY     CLEAR     27  24  89 NW3       29.83S
CHARLES CITY   CLEAR     34  32  93 S8        29.83R WCI  27
OELWEIN        CLEAR     32  30  93 S9        29.84S WCI  24
$$

...ELSEWHERE IN IOWA...


CITY           SKY/WX    TMP DP  RH WIND       PRES   REMARKS
DES MOINES     CLEAR     38  30  73 S9        29.82R WCI  31
IOWA CITY      PTCLDY    40  33  76 S14       29.90R WCI  32
FORT DODGE     CLEAR     27  21  80 CALM      29.82R
$$

...NORTHERN ILLINOIS...


CITY           SKY/WX    TMP DP  RH WIND       PRES   REMARKS
CHICAGO-OHARE  FAIR      37  32  82 S10       29.97F WCI  30
CHICAGO-MIDWAY PTCLDY    38  32  79 S10       30.00S WCI  31
MOLINE         MOCLDY    42  33  70 S15G29    29.91R
ROCKFORD       CLOUDY    38  34  85 S13       29.95F WCI  30
PEORIA         CLEAR     38  33  82 S13       30.00R WCI  30
$$

NOTE: "FAIR" INDICATES FEW OR NO CLOUDS BELOW 12,000 FEET WITH NO
SIGNIFICANT WEATHER AND/OR OBSTRUCTIONS TO VISIBILITY. WIND
SPEEDS ARE IN MILES-PER-HOUR.



USA.gov is the U.S. government's official web portal to all federal, state and local government web resources and services.